Weather reports worldwide

Advertisment
Capri, Italy (16294): temperature & dewpoint: 13.07.2018 13:00:00 - 19.07.2018 13:00:00 (CEST)Capri, Italy (16294): wind speed: 13.07.2018 13:00:00 - 19.07.2018 13:00:00 (CEST)Capri, Italy (16294): wind direction: 13.07.2018 13:00:00 - 19.07.2018 13:00:00 (CEST)Capri, Italy (16294): reduced air pressure: 13.07.2018 13:00:00 - 19.07.2018 13:00:00 (CEST)Capri, Italy (16294): visibility: 13.07.2018 13:00:00 - 19.07.2018 13:00:00 (CEST)
Date & Time tt [°C] td [°C] ff [km/h] ff [kn] dd ppp [hPa] vv [km]
19.07.2018 13:00:00 28,0 22,0 4 2 W - 10
19.07.2018 12:00:00 27,0 22,0 5 3 W - 10
19.07.2018 11:00:00 26,6 23,1 4 2 W 1014,3 20
19.07.2018 10:00:00 26,0 23,0 0 0 N - 10
19.07.2018 09:00:00 25,0 22,0 0 0 N - 10
19.07.2018 08:00:00 24,2 21,5 0 0 N 1014,5 20
19.07.2018 07:00:00 24,0 21,0 0 0 N - 10
19.07.2018 06:00:00 24,0 22,0 4 2 ENE - 10
19.07.2018 05:00:00 24,0 21,5 0 0 N 1014,5 15
19.07.2018 04:00:00 24,0 21,0 5 3 ENE - 10
19.07.2018 03:00:00 25,0 20,0 5 3 ENE - 10
19.07.2018 02:00:00 25,0 19,2 11 6 ENE 1014,4 15
19.07.2018 01:00:00 24,0 19,0 22 12 ENE - 10
19.07.2018 00:00:00 25,0 22,0 21 11 ENE - 10
18.07.2018 23:00:00 25,0 22,3 18 10 ENE 1014,4 15
18.07.2018 22:00:00 25,0 22,0 9 5 NNE - 10
18.07.2018 21:00:00 26,0 23,0 4 2 W - 10
18.07.2018 20:00:00 26,8 22,9 5 3 W 1014,3 15
18.07.2018 19:00:00 27,0 22,0 11 6 W - 10
18.07.2018 18:00:00 28,0 22,0 11 6 W - 10
18.07.2018 17:00:00 28,0 21,3 11 6 W 1014,5 20
18.07.2018 16:00:00 28,0 21,0 5 3 W - 10
18.07.2018 15:00:00 27,0 22,0 11 6 W - 10
18.07.2018 14:00:00 27,0 22,2 8 4 W 1014,9 20
18.07.2018 13:00:00 26,0 22,0 4 2 W - 10
18.07.2018 12:00:00 26,0 21,0 4 2 W - 10
18.07.2018 11:00:00 26,0 21,4 0 0 N 1014,2 20
18.07.2018 10:00:00 25,0 21,0 0 0 N - 10
18.07.2018 09:00:00 25,0 21,0 4 2 W - 10
18.07.2018 08:00:00 23,8 19,9 4 2 S 1013,2 15
18.07.2018 07:00:00 24,0 19,0 4 2 NE - 10
18.07.2018 06:00:00 24,0 19,0 5 3 NE - 10
18.07.2018 05:00:00 23,6 20,9 5 3 NE 1013,3 12
18.07.2018 04:00:00 - - - - - - -
18.07.2018 03:00:00 - - - - - - -
18.07.2018 02:00:00 24,0 21,7 4 2 W 1013,5 12
18.07.2018 01:00:00 24,0 22,0 5 3 W - 10
18.07.2018 00:00:00 24,0 22,0 8 4 W - 10
17.07.2018 23:00:00 24,8 21,7 8 4 W 1012,5 15
17.07.2018 22:00:00 25,0 22,0 9 5 W - 10
17.07.2018 21:00:00 25,0 22,0 9 5 W - 10
17.07.2018 20:00:00 25,6 21,9 13 7 WSW 1011,0 12
17.07.2018 19:00:00 26,0 22,0 18 10 W - 10
17.07.2018 18:00:00 26,0 21,0 18 10 W - 10
17.07.2018 17:00:00 25,2 20,5 22 12 W 1010,6 15
17.07.2018 16:00:00 26,0 21,0 18 10 W - 10
17.07.2018 15:00:00 25,0 21,0 16 9 W - 10
17.07.2018 14:00:00 25,2 20,7 18 10 W 1010,3 18
17.07.2018 13:00:00 25,0 20,0 9 5 W - 10
17.07.2018 12:00:00 25,0 21,0 8 4 W - 10
17.07.2018 11:00:00 23,8 18,5 9 5 W 1009,6 15
17.07.2018 10:00:00 24,0 20,0 11 6 WSW - 10
17.07.2018 09:00:00 24,0 20,0 15 8 SW - 10
17.07.2018 08:00:00 24,6 21,7 22 12 SW 1008,8 20
17.07.2018 07:00:00 25,0 22,0 18 10 SW - 10
17.07.2018 06:00:00 25,0 23,0 18 10 SW - 10
17.07.2018 05:00:00 25,4 23,3 4 2 SW 1009,3 20
17.07.2018 04:00:00 25,0 23,0 5 3 SW - 10
17.07.2018 03:00:00 25,0 23,0 0 0 N - 10
17.07.2018 02:00:00 - - - - - - -
17.07.2018 01:00:00 25,0 21,0 0 0 N - 10
17.07.2018 00:00:00 25,0 20,0 4 2 SW - 10
16.07.2018 23:00:00 25,4 18,8 4 2 SW 1011,5 20
16.07.2018 22:00:00 26,0 23,0 4 2 SW - 10
16.07.2018 21:00:00 - - - - - - -
16.07.2018 20:00:00 25,4 22,9 8 4 SW 1013,1 20
16.07.2018 19:00:00 26,0 23,0 4 2 SW - 10
16.07.2018 18:00:00 27,0 22,0 4 2 SW - 10
16.07.2018 17:00:00 26,4 23,3 11 6 WSW 1017,1 15
16.07.2018 16:00:00 27,0 24,0 5 3 SW - 10
16.07.2018 15:00:00 27,0 24,0 4 2 SW - 10
16.07.2018 14:00:00 27,6 23,4 5 3 WSW 1016,7 20
16.07.2018 13:00:00 27,0 25,0 5 3 WSW - 10
16.07.2018 12:00:00 27,0 23,0 4 2 WSW - 10
16.07.2018 11:00:00 26,6 23,5 5 3 NE 1016,1 20
16.07.2018 10:00:00 25,0 23,0 0 0 N - 10
16.07.2018 09:00:00 25,0 23,0 0 0 N - 10
16.07.2018 08:00:00 24,4 22,3 0 0 N 1015,5 20
16.07.2018 07:00:00 24,0 22,0 0 0 N - 10
16.07.2018 06:00:00 24,0 21,0 0 0 N - 10
16.07.2018 05:00:00 24,2 21,7 0 0 N 1014,7 20
16.07.2018 04:00:00 25,0 22,0 0 0 N - 10
16.07.2018 03:00:00 24,0 22,0 0 0 N - 10
16.07.2018 02:00:00 24,6 21,9 0 0 N 1014,9 20
16.07.2018 01:00:00 25,0 22,0 0 0 N - 10
16.07.2018 00:00:00 24,0 21,0 0 0 N - 10
15.07.2018 23:00:00 25,6 22,3 0 0 N 1014,8 20
15.07.2018 22:00:00 26,0 22,0 0 0 N - 10
15.07.2018 21:00:00 27,0 23,0 0 0 N - 10
15.07.2018 20:00:00 27,4 22,6 8 4 WSW 1014,2 20
15.07.2018 19:00:00 29,0 23,0 15 8 WSW - 10
15.07.2018 18:00:00 29,0 22,0 0 0 N - 10
15.07.2018 17:00:00 29,0 22,2 8 4 WSW 1014,1 20
15.07.2018 16:00:00 29,0 23,0 9 5 WSW - 10
15.07.2018 15:00:00 28,0 22,0 9 5 WSW - 10
15.07.2018 14:00:00 27,2 23,2 9 5 WSW 1014,4 20
15.07.2018 13:00:00 27,0 23,0 8 4 W - 10
15.07.2018 12:00:00 27,0 23,0 0 0 N - 10
15.07.2018 11:00:00 26,2 22,1 0 0 N 1014,3 20
15.07.2018 10:00:00 26,0 21,0 0 0 N - 10
15.07.2018 09:00:00 25,0 22,0 0 0 N - 10
15.07.2018 08:00:00 24,6 21,3 0 0 N 1014,2 10
15.07.2018 07:00:00 24,0 22,0 0 0 N - 10
15.07.2018 06:00:00 - - - - - - -
15.07.2018 05:00:00 24,8 21,1 0 0 N 1014,5 10
15.07.2018 04:00:00 - - - - - - -
15.07.2018 03:00:00 25,0 21,0 2 1 - - 10
15.07.2018 02:00:00 24,8 21,1 0 0 N 1014,5 10
15.07.2018 01:00:00 25,0 22,0 11 6 ENE - 10
15.07.2018 00:00:00 25,0 22,0 9 5 E - 10
14.07.2018 23:00:00 25,0 22,7 16 9 ENE 1015,2 10
14.07.2018 22:00:00 26,0 23,0 0 0 N - 10
14.07.2018 21:00:00 26,0 22,0 5 3 NNE - 10
14.07.2018 20:00:00 26,4 22,0 2 1 WSW 1014,8 12
14.07.2018 19:00:00 27,0 22,0 8 4 SW - 10
14.07.2018 18:00:00 28,0 22,0 9 5 WSW - 10
14.07.2018 17:00:00 28,4 21,9 8 4 WSW 1015,4 10
14.07.2018 16:00:00 29,0 22,0 15 8 WSW - 10
14.07.2018 15:00:00 29,0 22,0 8 4 W - 10
14.07.2018 14:00:00 28,4 22,2 5 3 W 1016,4 12
14.07.2018 13:00:00 27,0 22,0 5 3 WNW - 10
14.07.2018 12:00:00 27,0 23,0 5 3 W - 10
14.07.2018 11:00:00 26,0 22,5 4 2 NW 1018,1 15
14.07.2018 10:00:00 26,0 22,0 5 3 N - 10
14.07.2018 09:00:00 25,0 22,0 0 0 N - 10
14.07.2018 08:00:00 24,6 21,5 4 2 NE 1017,4 15
14.07.2018 07:00:00 24,0 21,0 9 5 ENE - 10
14.07.2018 06:00:00 24,0 22,0 15 8 E - 10
14.07.2018 05:00:00 23,8 21,5 15 8 E 1016,8 10
14.07.2018 04:00:00 24,0 22,0 5 3 ENE - 10
14.07.2018 03:00:00 24,0 22,0 8 4 E - 10
14.07.2018 02:00:00 24,4 22,1 5 3 ENE 1017,5 12
14.07.2018 01:00:00 24,0 21,0 5 3 E - 10
14.07.2018 00:00:00 24,0 22,0 5 3 ENE - 10
13.07.2018 23:00:00 24,6 22,5 5 3 ENE 1017,5 15
13.07.2018 22:00:00 25,0 23,0 4 2 NNE - 10
13.07.2018 21:00:00 26,0 23,0 0 0 N - 10
13.07.2018 20:00:00 27,6 23,2 0 0 N 1017,3 15
13.07.2018 19:00:00 28,0 23,0 5 3 WSW - 10
13.07.2018 18:00:00 28,0 24,0 5 3 WSW - 10
13.07.2018 17:00:00 28,4 24,0 5 3 WSW 1017,3 10
13.07.2018 16:00:00 27,0 23,0 9 5 WSW - 10
13.07.2018 15:00:00 28,0 23,0 5 3 WSW - 10
13.07.2018 14:00:00 27,0 22,6 5 3 W 1018,2 15
13.07.2018 13:00:00 27,0 22,0 4 2 W - 10

tt = temperature
td = dewpoint
ff = wind speed
dd = wind direction
ppp = reduced air pressure
vv = visibility

Next stations